Regional Weather Roundup
Issued by NWS Northern Indiana

Home | Current Version | Previous Version | Graphics & Text | Print | Product List | Glossary On
Versions: 1 2 3 4 5 6 7 8 9 10 11 12 13 14 15 16 17 18 19 20 21 22 23 24 25 26 27 28 29 30 31 32 33 34 35 36 37 38 39 40 41 42 43 44 45 46 47 48 49 50
000
ASUS43 KIWX 300600
RWRIWX

KIWX WEATHER ROUNDUP
NATIONAL WEATHER SERVICE NORTHERN INDIANA
200 AM EDT SAT MAY 30 2015

NOTE: "FAIR" INDICATES FEW OR NO CLOUDS BELOW 12,000 FEET WITH NO
SIGNIFICANT WEATHER AND/OR OBSTRUCTIONS TO VISIBILITY.

* THESE STATIONS ARE NOT UNDER NWS QUALITY CONTROL. THEY ALSO MAY NOT
  REPORT WEATHER SUCH AS PRECIPITATION OR FOG.

INZ001>027-300700-
NORTHERN INDIANA

CITY           SKY/WX    TMP DP  RH WIND       PRES   REMARKS
SOUTH BEND     CLOUDY    71  67  87 SW8       29.97S
6HR MIN TEMP:  71; 6HR MAX TEMP:  82; 6HR PCP:  0.07;

GOSHEN         MOCLDY    73  64  73 SW14      29.97F
6HR MIN TEMP:  73; 6HR MAX TEMP:  81;

ANGOLA*        CLEAR     72  64  78 SW7       29.98F
FORT WAYNE     PTCLDY    71  64  78 SW10      30.00F
6HR MIN TEMP:  71; 6HR MAX TEMP:  81;

PERU/GRISSOM   PTCLDY    72  66  83 SW9       29.99S

$$
INZ028>050-300700-
CENTRAL INDIANA

CITY           SKY/WX    TMP DP  RH WIND       PRES   REMARKS
LAFAYETTE      MOCLDY    70  64  81 W5        29.99S
6HR MIN TEMP:  70; 6HR MAX TEMP:  80;

KOKOMO*        PTCLDY    72  64  78 SW12      30.00F
6HR MIN TEMP:  72; 6HR MAX TEMP:  82;

MUNCIE*        CLEAR     71  64  78 S6        30.03S
6HR MIN TEMP:  71; 6HR MAX TEMP:  81;

INDIANAPOLIS   PTCLDY    71  64  78 S9        30.00F
6HR MIN TEMP:  70; 6HR MAX TEMP:  80;


$$
MIZ043>046-050>051-056>058-064>065-071>073-077>080-300700-
SOUTHWEST LOWER MICHIGAN

CITY           SKY/WX    TMP DP  RH WIND       PRES   REMARKS
BATTLE CREEK   CLOUDY    70  67  90 SW6       29.97S
6HR MIN TEMP:  70; 6HR MAX TEMP:  76; 6HR PCP:  0.23;

BENTON HARBOR  CLOUDY    69  65  86 SW7       29.94F
6HR MIN TEMP:  67; 6HR MAX TEMP:  75; 6HR PCP:  0.27;

COLDWATER*     PTCLDY    72  63  72 SW6       29.97F
6HR MIN TEMP:  72; 6HR MAX TEMP:  80;

HILLSDALE*     PTCLDY    72  66  80 S5        29.99F
6HR MIN TEMP:  72; 6HR MAX TEMP:  81;

HOLLAND        CLOUDY    72  64  76 SW10      29.93F
6HR MIN TEMP:  70; 6HR MAX TEMP:  77; 6HR PCP:  0.04;

GRAND RAPIDS   CLOUDY    69  66  90 S9        29.93F
6HR MIN TEMP:  69; 6HR MAX TEMP:  74; 6HR PCP:  0.11;

KALAMAZOO      CLOUDY    70  66  87 S8        29.96S
6HR MIN TEMP:  69; 6HR MAX TEMP:  78; 6HR PCP:  0.25;

STURGIS*       MOCLDY    73  64  73 SW9       29.97S
THREE RIVERS*  MOCLDY    70  66  85 SW3       29.97S
6HR MIN TEMP:  70; 6HR MAX TEMP:  81;


$$
OHZ001>008-015>018-024>025-300700-
NORTHWEST OHIO

CITY           SKY/WX    TMP DP  RH WIND       PRES   REMARKS
DEFIANCE       CLEAR     72  64  76 S8        29.99F
6HR MIN TEMP:  72; 6HR MAX TEMP:  82;

FINDLAY        PTCLDY    73  65  75 S10       30.02F
6HR MIN TEMP:  72; 6HR MAX TEMP:  81;

TOLEDO EXPRESS CLEAR     72  64  76 SW7       29.99F
6HR MIN TEMP:  72; 6HR MAX TEMP:  81;

TOLEDO METCALF CLEAR     73  63  70 S12       30.00F
6HR MIN TEMP:  73; 6HR MAX TEMP:  81; 6HR PCP: TRACE;

LIMA           PTCLDY    72  64  76 S10       30.04S
6HR MIN TEMP:  72; 6HR MAX TEMP:  81;


$$
AND FOR LAKE MICHIGAN COASTAL AND OPEN LAKE BUOY OBSERVATIONS

STATION/POSITION TEMP    WIND        PRES    VSBY  WAVE
                 AIR SEA DIR/SP/G                  HT/PER
                 (F)     (DEG/KT/KT) (MB)    (MI)  (FT/S)
CALUMET HARBOR    71     210/  5/  7   N/A
MICHIGAN CITY     71     170/ 10/ 12   N/A
BURNS HARBOR      70     190/ 12/ 16 1014.9S
SAINT JOSEPH      72     170/ 11/ 19 1014.2F
SOUTH LAKE BUOY   48 38  200/ 10/ 10 1013.5R         0
4 MI NW BRIDGMAN  63 58  230/  8/  8   N/A           1/ 3
MICHIGAN CITY     63 56  220/  6/  8   N/A           1

$$
&&



USA.gov is the U.S. government's official web portal to all federal, state and local government web resources and services.